TimeCDT,TemperatureF,Dew PointF,Humidity,Sea Level PressureIn,VisibilityMPH,Wind Direction,Wind SpeedMPH,Gust SpeedMPH,PrecipitationIn,Events,Conditions,WindDirDegrees,DateUTC
12:15 AM,59.2,53.2,81,30.06,10.0,East,3.5,-,N/A,,Clear,80,2013-07-29 05:15:00
12:35 AM,59.2,53.8,82,30.06,10.0,East,4.6,-,N/A,,Clear,100,2013-07-29 05:35:00
12:55 AM,59.0,53.8,83,30.06,10.0,East,5.8,-,N/A,,Clear,90,2013-07-29 05:55:00
1:15 AM,59.2,53.8,82,30.06,10.0,East,5.8,-,N/A,,Clear,100,2013-07-29 06:15:00
1:35 AM,59.5,53.8,81,30.05,10.0,East,5.8,-,N/A,,Clear,100,2013-07-29 06:35:00
1:55 AM,59.9,54.0,81,30.06,10.0,East,3.5,-,N/A,,Clear,80,2013-07-29 06:55:00
2:15 AM,60.6,54.5,80,30.06,10.0,ENE,3.5,-,N/A,,Clear,70,2013-07-29 07:15:00
2:55 AM,60.1,54.0,80,30.05,10.0,East,4.6,-,N/A,,Mostly Cloudy,80,2013-07-29 07:55:00
3:15 AM,59.7,53.6,80,30.06,10.0,East,3.5,-,N/A,,Scattered Clouds,90,2013-07-29 08:15:00
3:35 AM,58.5,53.6,84,30.05,10.0,East,4.6,-,N/A,,Clear,90,2013-07-29 08:35:00
3:55 AM,58.5,53.1,82,30.05,10.0,ESE,5.8,-,N/A,,Scattered Clouds,110,2013-07-29 08:55:00
4:15 AM,59.0,53.6,82,30.06,10.0,East,3.5,-,N/A,,Overcast,90,2013-07-29 09:15:00
4:35 AM,59.9,52.9,78,30.05,10.0,East,4.6,-,N/A,,Overcast,100,2013-07-29 09:35:00
4:55 AM,60.4,52.9,76,30.05,10.0,SE,4.6,-,N/A,,Overcast,140,2013-07-29 09:55:00
5:15 AM,60.8,53.1,76,30.05,10.0,SE,4.6,-,N/A,,Overcast,140,2013-07-29 10:15:00
5:35 AM,60.8,53.1,76,30.04,10.0,SE,5.8,-,N/A,,Overcast,130,2013-07-29 10:35:00
5:55 AM,61.0,52.9,75,30.05,10.0,SE,5.8,-,N/A,,Overcast,140,2013-07-29 10:55:00
6:15 AM,61.0,53.1,75,30.05,10.0,Calm,Calm,-,N/A,,Overcast,0,2013-07-29 11:15:00
6:35 AM,61.3,53.2,75,30.06,10.0,Calm,Calm,-,N/A,,Overcast,0,2013-07-29 11:35:00
6:55 AM,61.3,54.1,77,30.06,10.0,Calm,Calm,-,N/A,Rain,Rain,0,2013-07-29 11:55:00
7:15 AM,60.8,55.4,82,30.06,10.0,ESE,3.5,-,N/A,Rain,Light Rain,110,2013-07-29 12:15:00
7:35 AM,60.3,55.8,85,30.06,10.0,East,3.5,-,0.01,Rain,Light Rain,100,2013-07-29 12:35:00
7:55 AM,60.4,55.9,85,30.06,10.0,North,-9999.0,-,0.02,Rain,Light Rain,0,2013-07-29 12:55:00
8:15 AM,60.8,56.3,85,30.06,10.0,East,6.9,-,N/A,,Overcast,100,2013-07-29 13:15:00
8:35 AM,60.8,56.7,86,30.06,10.0,ESE,6.9,-,0.01,Rain,Light Rain,110,2013-07-29 13:35:00
8:55 AM,60.6,57.4,89,30.07,7.0,East,5.8,-,0.02,Rain,Light Rain,100,2013-07-29 13:55:00
9:15 AM,60.6,57.7,90,30.07,7.0,ESE,8.1,-,0.03,Rain,Rain,120,2013-07-29 14:15:00
9:35 AM,60.8,58.1,91,30.07,7.0,North,-9999.0,-,0.06,Rain,Light Rain,0,2013-07-29 14:35:00
9:55 AM,61.0,58.5,91,30.06,7.0,North,-9999.0,-,0.08,Rain,Rain,0,2013-07-29 14:55:00
10:15 AM,61.7,59.0,91,30.06,7.0,North,-9999.0,-,N/A,,Drizzle,0,2013-07-29 15:15:00
10:35 AM,61.7,59.2,91,30.07,7.0,North,-9999.0,-,0.01,,Drizzle,0,2013-07-29 15:35:00
10:55 AM,61.7,59.2,91,30.06,7.0,North,-9999.0,-,0.01,,Light Drizzle,0,2013-07-29 15:55:00
11:15 AM,61.9,59.4,91,30.06,10.0,North,-9999.0,-,N/A,,Light Drizzle,0,2013-07-29 16:15:00
11:35 AM,62.2,59.9,92,30.06,4.0,North,-9999.0,-,N/A,,Drizzle,0,2013-07-29 16:35:00
11:55 AM,62.8,60.4,92,30.05,4.0,SE,8.1,-,0.01,Rain,Rain,140,2013-07-29 16:55:00
12:15 PM,62.6,60.1,91,30.05,5.0,SE,11.5,17.3,N/A,,Drizzle,140,2013-07-29 17:15:00
12:35 PM,62.8,60.4,92,30.05,3.0,SE,11.5,17.3,0.01,Rain,Light Rain,140,2013-07-29 17:35:00
12:55 PM,63.1,61.0,93,30.05,3.0,SE,11.5,17.3,0.02,,Drizzle,140,2013-07-29 17:55:00
1:15 PM,63.7,61.3,92,30.04,3.0,SE,11.5,-,0.01,,Drizzle,140,2013-07-29 18:15:00
1:35 PM,63.7,61.2,91,30.04,5.0,SE,16.1,-,0.01,Rain,Light Rain,140,2013-07-29 18:35:00
1:55 PM,63.7,61.2,91,30.04,7.0,SE,12.7,19.6,0.01,,Overcast,130,2013-07-29 18:55:00
2:15 PM,64.4,61.7,91,30.04,10.0,SE,9.2,-,N/A,,Overcast,130,2013-07-29 19:15:00
2:35 PM,64.6,61.9,91,30.04,10.0,North,-9999.0,-,N/A,,Overcast,0,2013-07-29 19:35:00
2:55 PM,64.8,61.9,90,30.04,10.0,North,-9999.0,-,N/A,,Overcast,0,2013-07-29 19:55:00
3:15 PM,64.9,62.1,90,30.04,10.0,North,-9999.0,-,N/A,,Overcast,0,2013-07-29 20:15:00
3:35 PM,64.9,62.1,90,30.05,10.0,North,-9999.0,-,N/A,Rain,Rain,0,2013-07-29 20:35:00
3:55 PM,64.9,61.9,90,30.04,10.0,North,-9999.0,-,N/A,,Overcast,0,2013-07-29 20:55:00
4:15 PM,65.3,62.4,90,30.04,10.0,SE,10.4,-,N/A,,Overcast,140,2013-07-29 21:15:00
4:35 PM,65.7,62.6,90,30.03,10.0,ESE,11.5,-,N/A,,Overcast,120,2013-07-29 21:35:00
4:55 PM,66.2,63.1,90,30.03,10.0,SE,10.4,-,N/A,,Overcast,130,2013-07-29 21:55:00
5:15 PM,66.2,63.0,89,30.03,10.0,ESE,9.2,-,N/A,,Overcast,120,2013-07-29 22:15:00
5:35 PM,66.2,63.1,90,30.02,4.0,North,-9999.0,-,N/A,,Overcast,0,2013-07-29 22:35:00
5:55 PM,66.2,63.5,91,30.02,4.0,North,-9999.0,-,N/A,,Overcast,0,2013-07-29 22:55:00
6:15 PM,66.4,63.5,90,30.02,5.0,ESE,9.2,-,N/A,,Overcast,120,2013-07-29 23:15:00
6:35 PM,66.2,62.6,88,30.02,7.0,ESE,13.8,-,N/A,,Overcast,120,2013-07-29 23:35:00
6:55 PM,66.2,62.8,89,30.01,10.0,ESE,9.2,-,N/A,,Overcast,120,2013-07-29 23:55:00
7:15 PM,66.2,62.8,89,30.01,7.0,SE,9.2,-,N/A,,Overcast,130,2013-07-30 00:15:00
7:35 PM,65.8,62.6,89,30.01,10.0,ESE,11.5,-,N/A,,Overcast,120,2013-07-30 00:35:00
7:55 PM,65.8,62.8,90,30.02,10.0,ESE,8.1,-,N/A,,Overcast,110,2013-07-30 00:55:00
8:15 PM,65.8,62.6,89,30.02,10.0,ESE,6.9,-,N/A,,Overcast,120,2013-07-30 01:15:00
8:35 PM,65.7,62.8,90,30.03,7.0,SE,5.8,-,N/A,,Overcast,130,2013-07-30 01:35:00
8:55 PM,65.5,63.0,92,30.04,7.0,ESE,5.8,-,N/A,,Overcast,120,2013-07-30 01:55:00
9:15 PM,65.3,63.1,93,30.04,2.0,ESE,4.6,-,N/A,,Overcast,110,2013-07-30 02:15:00
9:35 PM,65.3,63.5,94,30.05,2.0,Calm,Calm,-,N/A,,Overcast,0,2013-07-30 02:35:00
9:55 PM,65.3,63.5,94,30.05,2.0,ESE,4.6,-,N/A,,Overcast,120,2013-07-30 02:55:00
10:15 PM,65.3,63.5,94,30.06,2.5,ESE,4.6,-,N/A,,Overcast,110,2013-07-30 03:15:00
10:35 PM,65.3,63.5,94,30.06,2.0,East,4.6,-,N/A,,Overcast,100,2013-07-30 03:35:00
10:55 PM,65.3,63.5,94,30.05,2.5,East,4.6,-,N/A,,Overcast,90,2013-07-30 03:55:00
11:15 PM,65.3,63.5,94,30.05,2.0,East,3.5,-,N/A,,Overcast,90,2013-07-30 04:15:00
11:35 PM,65.3,63.5,94,30.05,2.0,ESE,5.8,-,N/A,,Overcast,110,2013-07-30 04:35:00
11:55 PM,65.3,63.5,94,30.05,0.8,ESE,4.6,-,N/A,,Overcast,110,2013-07-30 04:55:00